Flag for Canada Weather past 2 weeks in Saguenay, Quebec, Canada

Now
32 °F

Chilly.


Feels Like: 32 °F
Forecast: 30 / 41 °F
Wind: 1 mph from West

Location: Jonquiere Airport

Current Time: Oct 21, 2014 at 2:09:09 AM

Latest Report: Oct 21, 2014 at 1:00 AM


Visibility: N/A

Pressure: 30.03 "Hg

Humidity: 76%

Dew point: 25 °F

Location of SaguenayLocation

Historic Weather in Saguenay — Graph

°F

Saguenay temperature yesterday

Maximum temperature yesterday: 41 °F (at 4:00 PM)
Minimum temperature yesterday: 33 °F (at 1:00 AM)
Average temperature yesterday: 36 °F

Past Weeks' High & Low Weather Summary

 TemperatureHumidityPressure
High72 °F (Oct 15, 12:00 AM)100% (Oct 12, 2:00 AM)30.24 "Hg (Oct 12, 2:00 AM)
Low31 °F (Oct 21, 12:00 AM)38% (Oct 13, 4:00 PM)29.36 "Hg (Oct 17, 4:00 PM)
Average48 °F80%29.87 "Hg
* Reported Midnight between Oct 5 and Oct 6 — Midnight between Oct 20 and Oct 21, Saguenay, Weather by CustomWeather, © 2014

Note: Actual official high and low records may vary slightly from our data, if they occured in-between our weather recording intervals... More about our weather records

Advertising

Saguenay weather history for previous 24 hours

 ConditionsComfort  
Time TempWeatherWind HumidityBarometerVisibility
12:00 AM
Oct 21
31 °FChilly.2 mph79%30.01 "HgN/A
11:00 PM
Oct 20
33 °FChilly.1 mph73%30.01 "HgN/A
10:00 PM33 °FChilly.2 mph74%30.00 "HgN/A
9:00 PM35 °FChilly.7 mph70%29.98 "HgN/A
8:00 PM36 °FChilly.8 mph67%29.96 "HgN/A
7:00 PM37 °FChilly.10 mph63%29.95 "HgN/A
6:00 PM37 °FChilly.10 mph63%29.92 "HgN/A
5:00 PM40 °FQuite cool.10 mph57%29.90 "HgN/A
4:00 PM41 °FQuite cool.14 mph58%29.89 "HgN/A
3:00 PM39 °FChilly.16 mph56%29.88 "HgN/A
2:00 PM39 °FChilly.13 mph62%29.88 "HgN/A
1:00 PM39 °FChilly.15 mph59%29.88 "HgN/A
12:00 PM36 °FChilly.13 mph65%29.89 "HgN/A
11:00 AM37 °FChilly.13 mph62%29.90 "HgN/A
10:00 AM35 °FChilly.14 mph72%29.90 "HgN/A
9:00 AM36 °FChilly.14 mph68%29.89 "HgN/A
8:00 AM35 °FChilly.13 mph69%29.88 "HgN/A
7:00 AM35 °FChilly.12 mph72%29.87 "HgN/A
6:00 AM35 °FChilly.12 mph71%29.86 "HgN/A
5:00 AM35 °FChilly.14 mph72%29.86 "HgN/A
4:00 AM34 °FChilly.14 mph72%29.86 "HgN/A
3:00 AM34 °FChilly.12 mph75%29.87 "HgN/A
2:00 AM34 °FChilly.13 mph73%29.87 "HgN/A
Weather by CustomWeather, © 2014

See weather overviewHow to use our weather pages